sat.trackr.live / text

‹ back to catalog

STARLINK-36157

NORAD 66933 · 2025-286J

PAYLOAD ACTIVE UNKNOWN

§ Identity

Operator
Country
US
Launch date
2025-12-07
Launch site
AFWTR
Launch vehicle
Mass (kg)
RCS (m²)

Purposes: comms

External: N2YO · Heavens-Above · Gunter

§ Orbital elements

Epoch: 2026-09-20T03:53:41.023968Z

Period
93.85 min
Inclination
53.1573°
Eccentricity
0.0001159
Mean motion
15.34406233 rev/d
Perigee alt
461.9 km
Apogee alt
463.5 km
Semi-major
6,840.8 km
B*
6.2252e-4
RAAN
171.4431°
Arg perigee
88.0909°
Mean anomaly
272.0226°
Rev number
4,524

§ Raw data

STARLINK-361571 66933U 25286J   26263.16228037  .00020719  00000+0  62252-3 0  99962 66933  53.1573 171.4431 0001159  88.0909 272.0226 15.34406233 45241

JSON: /api/v1/satellites/66933 · /tle

For live sub-satellite position, see the globe view (requires WebGL).

§ Visibility from observer

Set your observer location to see the next 7 days of passes ≥ 10°. The values pass through the URL so the page stays shareable.

No JS? Fill the form by hand. The geolocation button needs JavaScript.